DECAYED

STARLINK-11416, 62594 (Decayed)

Orbit data source: Space-Track

STARLINK-11416, 62594 was a payload satellite owned by SpaceX/Seattle (US) in LEO that was launched on Mon, 13 Jan 2025 UTC via an FALCON 9 launch vehicle from the Air Force Eastern Test Range (AFETR). Payload-class satellites include a variety of spacecraft equipped with specific instruments for various scientific and technological missions. These include communications satellites like Starlink; space stations such as the ISS; scientific satellites like the Hubble; Earth observation satellites from companies like Planet Labs, Umbra, and HawkEye 360; GPS; miniature CubeSats for education and research; and military/defense satellites.

Not visible in the next 10 days
Identifier
62594, 2025-008H
Orbit
Decayed
Country
Flag of USUS
Related business
Manufacturer
SpaceX/Seattle
Mission
Decayed Commercial Communications
Bus & Motor
STARLINK V2MD, Unknown motor
Mass
960 kg wet, ~910 kg dry
Launch date (UTC)
2025-01-13 (2 years ago)
Launch vehicle
FALCON 9
Launch site
Air Force Eastern Test Range (AFETR)
Object type
Payload
Rocket body
Debris
Shape & HBR
Box + 2 Pan, 18.1 m
Radar Cross Section
36.964 m², Large (>1 m²)

Expand to show TLE details & history
Last TLE update: 2 months ago

TLE from 2 months ago
0 STARLINK-11416
1 62594U 25008H   26188.21929407  .12173371  88691-5  33308-2 0  9991
2 62594  42.9747 113.8100 0013325 215.0945 144.9066 16.26790110 86046
Epoch: 2026-07-07T05:15Z
TLE epoch observation values (Epoch: 2026-07-07T05:15:47.007Z)
Latitude
-0.00001°
Longitude
109.67106°
Altitude
208.119 km
Speed
7.779 km/s
True Right ascension
07h 35m 14s
True Declination
0° 00' 00"
Sunlit
Object was in daylight at epoch
Visualization orbit readout
Latitude
Unknown
Longitude
Unknown
Altitude
Unknown
Speed
Unknown
Apparent Right ascension
Unknown
Apparent Declination
Unknown
Sunlit
N/A
Visualization observer readout
Local Sidereal Time
10:30:21
Azimuth
Unknown
Elevation
Unknown
Doppler factor
Unknown
Orbital elements
Apogee altitude
211.982 km
Perigee altitude
194.443 km
Semi-major axis
6,581.35 km
Eccentricity
0.00133
Inclination
42.9747°
RAAN
113.81°
Arg. of periapsis
215.0945°
True anomaly
144.99427°
Mean anomaly
144.9066°
Eccentric anomaly
144.95044°
Mean motion
4.0651 °/min
Orbital period
88.56 mins
BSTAR
0.0033308
Loading maneuver chart data...
Computing Atmospheric mass density...
Loading historical data...
Loading historical data...
Loading historical data...
Loading historical data...
Loading historical data...
Loading historical data...
Loading historical data...

Documentation

Showing up to 5 results
|